Погода в Каргополе

Россия / Архангельская область     61°30′19″N   38°56′53″E
темп.,
°C
ветер,
м/с
пор.,
м/с
влажн.,
%
обл.,
%
осадки,
мм/ч
давл.,
гПа
погр.,
м
17 апреля, сб
сб1700:000св22910 0.0 103420
03:00−1св11942 0.0 103416
06:000св23933 0.0 103449
09:00+6св12715 0.0 1034356
12:00+10ссв12555 0.0 10331128
15:00+11ссв23485 0.0 10321385
18:00+9с13630 0.0 103188
21:00+4с24810 0.0 103266
18 апреля, вс
вс1800:00+2ссв24910 0.0 103269
03:00+1ссв25953 0.0 103381
06:00+1ссв279442 0.0 1033155
09:00+6св35715 0.0 1033567
12:00+9св345915 0.0 10331250
15:00+7всв456569 0.0 10341121
18:00+6всв356559 0.0 10341046
21:00+2всв28805 0.0 1034180
19 апреля, пн
пн1900:000в26750 0.0 1035127
03:00−1в24782 0.0 103684
06:00−1в26750 0.0 1036165
09:00+5вюв35515 0.0 1036704
12:00+7вюв34415 0.0 10351359
15:00+9вюв343841 0.0 10341533
18:00+8в25479 0.0 1033500
21:00+2вюв2566100 0.0 103482
20 апреля, вт
вт2000:00+1вюв25745 0.0 1034100
03:00−1вюв24780 0.0 103375
06:000вюв26750 0.0 1033147
09:00+6юв36480 0.0 1032819
12:00+8юв46362 0.0 10301400
15:00+10юв473214 0.0 10281632
18:00+9вюв374032 0.0 1025715
21:00+3вюв2106452 0.0 1025216
21 апреля, ср
ср2100:00+2в3126699 0.0 1023333
03:00+2в41267100 0.0 1020411
06:00+2в51466100 0.0 1016593
09:00+5вюв61560100 0.0 1013840
12:00+4вюв61582100 0.6 10111032
15:00+3вюв61596100 2.2 1009899
18:00+3юв61496100 0.8 10071001
21:00+5юв61591100 1.1 10061050